This is the latest recevied weather packets stored in our database for station/object SR5NLK-1. If no packets are shown the sender has not sent any weather packets the latest 1 day(s).
| Time | Temp. | Humidity | Pressure | Rain* | Wind** | Luminosity | Snow |
|---|---|---|---|---|---|---|---|
| 1777985253 | 32.22° C | 24% | 1050.8 hPa | 0 mm | 1.79 m/s, 225° | - | - |
| 1777985132 | 32.78° C | 24% | 968.5 hPa | 0 mm | 4.02 m/s, 270° | - | - |
| 1777984953 | 32.78° C | 24% | 1013.5 hPa | 0 mm | 2.24 m/s, 292° | - | - |
| 1777984653 | 32.78° C | 24% | 1058.5 hPa | 0 mm | 1.79 m/s, 202° | - | - |
| 1777984353 | 33.33° C | 24% | 974.7 hPa | 0 mm | 3.13 m/s, 225° | - | - |
| 1777984100 | 33.33° C | 24% | 1016.7 hPa | 0 mm | 1.34 m/s, 180° | - | - |
| 1777984053 | 33.33° C | 24% | 1016.7 hPa | 0 mm | 1.34 m/s, 180° | - | - |
| 1777983753 | 33.33° C | 24% | 1046 hPa | 0 mm | 1.79 m/s, 225° | - | - |
| 1777983453 | 33.33° C | 24% | 1090.9 hPa | 0 mm | 3.58 m/s, 112° | - | - |
| 1777983152 | 33.33° C | 25% | 1021.2 hPa | 0 mm | 5.36 m/s, 157° | - | - |
| 1777982853 | 33.33° C | 25% | 929.8 hPa | 0 mm | 0.89 m/s, 135° | - | - |
| 1777982553 | 32.78° C | 25% | 1084.6 hPa | 0 mm | 3.13 m/s, 247° | - | - |
| 1777982253 | 32.78° C | 26% | 1085 hPa | 0 mm | 4.02 m/s, 157° | - | - |
| 1777981953 | 32.78° C | 26% | 1016.6 hPa | 0 mm | 2.24 m/s, 157° | - | - |
| 1777981653 | 32.78° C | 26% | 1007.3 hPa | 0 mm | 3.13 m/s, 202° | - | - |
| 1777981359 | 32.78° C | 26% | 1081.5 hPa | 0 mm | 2.68 m/s, 247° | - | - |
| 1777981172 | 32.78° C | 26% | 1067.9 hPa | 0 mm | 1.79 m/s, 202° | - | - |
| 1777981053 | 32.78° C | 27% | 1061.6 hPa | 0 mm | 1.79 m/s, 270° | - | - |
| 1777980753 | 32.78° C | 26% | 1009.1 hPa | 0 mm | 0.89 m/s, 135° | - | - |
| 1777980453 | 33.33° C | 27% | 1100.3 hPa | 0 mm | 1.34 m/s, 180° | - | - |
| 1777980153 | 33.33° C | 27% | 1037.1 hPa | 0 mm | 2.68 m/s, 202° | - | - |
| 1777979853 | 32.78° C | 28% | 1036.5 hPa | 0 mm | 3.13 m/s, 180° | - | - |
| 1777979553 | 32.78° C | 28% | 1045.9 hPa | 0 mm | 0.89 m/s, 270° | - | - |
| 1777979253 | 32.78° C | 28% | 971.6 hPa | 0 mm | 0.89 m/s, 202° | - | - |
| 1777979192 | 32.78° C | 27% | 1013.5 hPa | 0 mm | 1.34 m/s, 202° | - | - |
* Rain latest hour (hover to see other rain measurements)
** Current wind speed in m/s (hover to see current wind gust speed)